Погода в Монтевидео

Уругвай     34°51′33″S   56°11′52″W
темп.,
°C
ветер,
м/с
пор.,
м/с
влажн.,
%
обл.,
%
осадки,
мм/ч
давл.,
гПа
погр.,
м
9 августа, вт
вт900:00+10вюв2768100 0.0 1030260
03:00+9юв367037 0.0 1030174
06:00+8юв2377100 0.0 103078
09:00+10вюв26789 0.0 1032316
12:00+13юв45515 0.0 10321370
15:00+13юв55505 0.0 10301350
18:00+10юв35660 0.0 1031356
21:00+8юв24800 0.0 1032135
10 августа, ср
ср1000:00+7в23830 0.0 103172
03:00+6всв22890 0.0 103042
06:00+5св22930 0.0 102943
09:00+7ссв12800 0.0 1030125
12:00+13св34495 0.0 1029813
15:00+15ссв3446100 0.0 10261229
18:00+12всв2364100 0.0 102567
21:00+9св2580100 0.0 1026145
11 августа, чт
чт1100:00+8св377981 0.0 1026192
03:00+7ссв37870 0.0 1025172
06:00+6ссв36890 0.0 1025147
09:00+7с37780 0.0 1026206
12:00+14ссз46570 0.0 1025805
15:00+17с56490 0.0 10221278
18:00+13с37670 0.0 1021203
21:00+10ссв410820 0.0 1021251
12 августа, пт
пт1200:00+9ссв411885 0.0 1021265
03:00+8ссв310905 0.0 1021236
06:00+8ссв3109213 0.0 1020235
09:00+10ссв41184100 0.0 1020310
12:00+16ссв6863100 0.0 1018813
15:00+18с5756100 0.0 10161194
18:00+15с3776100 0.0 1015165
21:00+13ссв3988100 0.0 1017206
13 августа, сб
сб1300:00+12с310930 0.0 1017251
03:00+11с38960 0.1 1017164
06:00+11с35975 0.0 1017111
09:00+13ссз23882 0.0 1018113
12:00+19с22663 0.0 1018622
15:00+21ссв23530 0.0 10161183
18:00+17св22700 0.0 101626
21:00+14всв35855 0.0 1017120